Location: ????????
(55.0808°N, 38.5463°E)
Time: 05:39:21
(UTC+00:00)

ISS - Visible Passes

Search period start: 21 June 2024 00:00
Search period end: 01 July 2024 00:00
Orbit: 411 x 425 km, 51.6° (Epoch: 20 June)

Date Brightness Start Highest point End Pass type
(mag) Time Alt. Az. Time Alt. Az. Time Alt. Az.
27 Jun -1.6 23:29:43 10° S 23:31:30 14° SE 23:33:17 10° ESE visible
29 Jun -2.3 23:28:48 11° SSW 23:31:24 23° SSE 23:34:07 10° E visible
30 Jun -2.0 22:42:01 15° S 22:43:17 18° SSE 22:45:38 10° ESE visible
